Latest Coastal Weather Observations for Lady Elliot Island

IDQ60701

Issued at 8:21 pm EST Monday 5 December 2016 (issued every 10 minutes, with the page automatically refreshed every 10 minutes)

About coastal observations | Map of coastal stations | Coastal observations for QLD | Marine services | Other Formats
Station Details ID: 039059 Name: LADY ELLIOT ISLAND Lat: -24.11 Lon: 152.72 Height: 3.6 m
Data from the previous 72 hours. | See also: Recent months at Lady Elliot Island
Date/Time
EST
Temp
°C
Wind Pressure Rain since
9am
mm
Weather Cloud Vis
km
Sea
Height
m
Swell
Dir  Spd
kts
Gust
kts
hPa Trend Height
m
Period
s
Dir
05/08:00pm 25.1 NNE 8 12 1014.7 - 0.0 - - - - - - -
05/07:30pm 25.2 NNE 7 12 1014.7 - 0.0 - - - - - - -
05/07:00pm 25.2 NNE 7 11 1014.5 - 0.0 - - - - - - -
05/06:30pm 25.6 NNE 7 11 1014.5 - 0.0 - - - - - - -
05/06:00pm 26.1 NNE 7 11 1014.1 - 0.0 - - - - - - -
05/05:30pm 26.2 NNE 7 11 1014.0 - 0.0 - - - - - - -
05/05:00pm 26.8 NNE 7 10 1014.0 - 0.0 - - - - - - -
05/04:30pm 27.7 NNE 6 9 1013.9 - 0.0 - - - - - - -
05/04:00pm 27.6 NNE 7 11 1013.8 - 0.0 - - - - - - -
05/03:30pm 27.7 NNE 7 11 1013.8 - 0.0 - - - - - - -
05/03:00pm 28.4 NNE 7 11 1013.9 - 0.0 - - - - - - -
05/02:30pm 28.3 N 7 10 1014.1 - 0.0 - - - - - - -
05/02:00pm 29.0 NNE 6 10 1014.4 - 0.0 - - - - - - -
05/01:30pm 29.3 NNE 6 10 1014.8 - 0.0 - - - - - - -
05/01:00pm 28.6 NNE 7 10 1015.2 - 0.0 - - - - - - -
05/12:30pm 28.5 NNE 6 9 1015.3 - 0.0 - - - - - - -
05/12:00pm 28.9 NNE 6 8 1015.8 - 0.0 - - - - - - -
05/11:30am 28.7 NNE 6 9 1016.2 - 0.0 - - - - - - -
05/11:00am 28.5 NNE 6 9 1016.5 - 0.0 - - - - - - -
05/10:30am 28.3 NNE 7 10 1016.6 - 0.0 - - - - - - -
05/10:00am 28.5 NNE 6 11 1016.8 - 0.0 - - - - - - -
05/09:30am 28.4 NNE 6 11 1016.8 - 0.0 - - - - - - -
05/09:00am 27.9 NNE 8 11 1016.6 - 0.0 - - - - - - -
05/08:30am 27.6 NNE 6 9 1016.8 - 0.0 - - - - - - -
05/08:00am 27.5 NNE 6 11 1016.7 - 0.0 - - - - - - -
05/07:30am 27.0 NNE 7 10 1016.9 - 0.0 - - - - - - -
05/07:00am 26.8 NNE 6 10 1016.7 - 0.0 - - - - - - -
05/06:30am 26.0 NNE 6 9 1016.6 - 0.0 - - - - - - -
05/06:00am 25.5 NNE 6 8 1016.4 - 0.0 - - - - - - -
05/05:30am 24.4 NNE 5 8 1016.2 - 0.0 - - - - - - -
05/05:00am 24.1 NNE 6 9 1015.7 - 0.0 - - - - - - -
05/04:30am 24.2 NNE 5 11 1015.3 - 0.0 - - - - - - -
05/04:00am 24.1 NNE 6 10 1014.9 - 0.0 - - - - - - -
05/03:30am 24.1 N 6 9 1014.7 - 0.0 - - - - - - -
05/03:00am 24.2 NNE 7 10 1014.3 - 0.0 - - - - - - -
05/02:30am 24.3 NNE 6 9 1014.6 - 0.0 - - - - - - -
05/02:00am 24.3 NNE 6 10 1014.5 - 0.0 - - - - - - -
05/01:30am 24.4 NNE 6 10 1014.9 - 0.0 - - - - - - -
05/01:00am 24.3 NNE 6 10 1015.1 - 0.0 - - - - - - -
05/12:30am 24.4 NNE 7 10 1015.2 - 0.0 - - - - - - -
05/12:00am 24.6 NNE 6 11 1015.4 - 0.0 - - - - - - -
 
Date/Time
EST
Temp
°C
Wind Pressure Rain since
9am
mm
Weather Cloud Vis
km
Sea
Height
m
Swell
Dir  Spd
kts
Gust
kts
hPa Trend Height
m
Period
s
Dir
04/11:30pm 24.6 NNE 6 10 1015.5 - 0.0 - - - - - - -
04/11:00pm 24.8 NNE 6 10 1015.7 - 0.0 - - - - - - -
04/10:30pm 24.8 NNE 6 8 1016.2 - 0.0 - - - - - - -
04/10:00pm 24.7 NNE 7 11 1016.0 - 0.0 - - - - - - -
04/09:30pm 24.8 NNE 6 9 1015.8 - 0.0 - - - - - - -
04/09:00pm 24.7 NNE 6 10 1015.5 - 0.0 - - - - - - -
04/08:30pm 25.0 NNE 5 8 1015.3 - 0.0 - - - - - - -
04/08:00pm 25.0 NNE 6 8 1015.1 - 0.0 - - - - - - -
04/07:30pm 25.0 NNE 5 8 1014.8 - 0.0 - - - - - - -
04/07:00pm 25.3 NNE 6 8 1014.5 - 0.0 - - - - - - -
04/06:30pm 25.5 NNE 6 9 1014.3 - 0.0 - - - - - - -
04/06:00pm 25.9 N 6 10 1014.2 - 0.0 - - - - - - -
04/05:30pm 26.5 NNE 6 9 1013.9 - 0.0 - - - - - - -
04/05:00pm 27.2 N 6 8 1013.9 - 0.0 - - - - - - -
04/04:30pm 27.8 N 6 9 1014.0 - 0.0 - - - - - - -
04/04:00pm 27.9 N 6 8 1014.2 - 0.0 - - - - - - -
04/03:30pm 28.7 N 6 10 1014.2 - 0.0 - - - - - - -
04/03:00pm 28.3 N 8 10 1014.3 - 0.0 - - - - - - -
04/02:30pm 29.3 N 9 11 1014.5 - 0.0 - - - - - - -
04/02:00pm 29.6 N 9 11 1014.7 - 0.0 - - - - - - -
04/01:30pm 28.7 N 9 11 1014.7 - 0.0 - - - - - - -
04/01:00pm 29.2 N 11 13 1014.8 - 0.0 - - - - - - -
04/12:30pm 29.1 N 10 13 1015.4 - 0.0 - - - - - - -
04/12:00pm 29.3 N 9 13 1015.9 - 0.0 - - - - - - -
04/11:30am 29.2 N 9 13 1016.3 - 0.0 - - - - - - -
04/11:00am 28.8 N 7 11 1016.4 - 0.0 - - - - - - -
04/10:30am 28.6 N 8 11 1016.5 - 0.0 - - - - - - -
04/10:00am 28.4 N 7 11 1016.6 - 0.0 - - - - - - -
04/09:30am 28.6 N 7 11 1016.9 - 0.0 - - - - - - -
04/09:00am 28.1 N 7 11 1017.2 - 0.0 - - - - - - -
04/08:30am 28.6 NNE 7 10 1017.1 - 0.0 - - - - - - -
04/08:00am 27.0 NNE 6 11 1016.6 - 0.0 - - - - - - -
04/07:30am 27.0 NNE 6 11 1016.5 - 0.0 - - - - - - -
04/07:00am 26.5 NNE 6 9 1016.0 - 0.0 - - - - - - -
04/06:30am 26.1 NNE 7 11 1015.6 - 0.0 - - - - - - -
04/06:00am 25.5 NNE 6 11 1015.0 - 0.0 - - - - - - -
04/05:30am 25.2 NNE 7 13 1014.6 - 0.0 - - - - - - -
04/05:00am 24.8 NNE 8 13 1014.0 - 0.0 - - - - - - -
04/04:30am 24.9 N 10 17 1013.2 - 0.0 - - - - - - -
04/04:00am 24.9 N 11 16 1012.9 - 0.0 - - - - - - -
04/03:30am 24.8 NNE 10 18 1012.4 - 0.0 - - - - - - -
04/03:00am 24.7 NNE 10 15 1012.9 - 0.0 - - - - - - -
04/02:30am 24.7 NNE 8 11 1014.0 - 0.0 - - - - - - -
04/02:00am 24.8 N 10 16 1014.0 - 0.0 - - - - - - -
04/01:52am 24.8 N 8 14 1014.1 - 0.0 - - - - - - -
04/01:30am 24.7 NNE 3 5 1016.1 - 0.0 - - - - - - -
04/01:00am 24.7 E 6 9 1017.3 - 0.0 - - - - - - -
04/12:30am 25.0 SE 11 15 1018.2 - 0.0 - - - - - - -
04/12:00am 25.2 SE 13 17 1019.0 - 0.0 - - - - - - -
 
Date/Time
EST
Temp
°C
Wind Pressure Rain since
9am
mm
Weather Cloud Vis
km
Sea
Height
m
Swell
Dir  Spd
kts
Gust
kts
hPa Trend Height
m
Period
s
Dir
03/11:30pm 25.3 SE 11 16 1019.7 - 0.0 - - - - - - -
03/11:00pm 25.1 ESE 11 16 1018.9 - 0.0 - - - - - - -
03/10:44pm 25.2 ENE 6 10 1017.9 - 0.0 - - - - - - -
03/10:30pm 25.0 NNE 9 15 1015.8 - 0.0 - - - - - - -
03/10:00pm 25.1 NNE 8 13 1016.2 - 0.0 - - - - - - -
03/09:30pm 25.1 NNE 9 13 1015.9 - 0.0 - - - - - - -
03/09:00pm 25.1 NNE 8 13 1015.5 - 0.0 - - - - - - -
03/08:30pm 25.3 NNE 9 13 1015.1 - 0.0 - - - - - - -
03/08:00pm 25.4 NNE 9 12 1014.1 - 0.0 - - - - - - -
03/07:30pm 25.4 NNE 10 15 1013.6 - 0.0 - - - - - - -
03/07:00pm 25.4 NNE 8 13 1013.5 - 0.0 - - - - - - -
03/06:30pm 25.6 NNE 9 13 1013.4 - 0.0 - - - - - - -
03/06:00pm 26.0 NNE 7 14 1013.1 - 0.0 - - - - - - -
03/05:30pm 26.6 NNE 8 12 1013.0 - 0.0 - - - - - - -
03/05:00pm 27.3 NNE 7 12 1012.9 - 0.0 - - - - - - -
03/04:30pm 27.6 NNE 7 11 1013.0 - 0.0 - - - - - - -
03/04:00pm 28.0 NNE 7 11 1013.1 - 0.0 - - - - - - -
03/03:30pm 27.8 NNE 7 11 1013.4 - 0.0 - - - - - - -
03/03:00pm 28.6 N 7 11 1013.9 - 0.0 - - - - - - -
03/02:30pm 28.8 NNE 7 11 1014.1 - 0.0 - - - - - - -
03/02:00pm 28.7 NNE 6 10 1014.3 - 0.0 - - - - - - -
03/01:30pm 29.3 NNE 6 11 1014.6 - 0.0 - - - - - - -
03/01:00pm 29.6 N 6 10 1014.9 - 0.0 - - - - - - -
03/12:30pm 28.8 N 7 10 1015.1 - 0.0 - - - - - - -
03/12:00pm 29.1 N 7 11 1015.3 - 0.0 - - - - - - -
03/11:30am 29.1 N 8 11 1015.5 - 0.0 - - - - - - -
03/11:00am 29.0 N 8 9 1016.0 - 0.0 - - - - - - -
03/10:30am 27.8 NNW 9 11 1016.1 - 0.0 - - - - - - -
03/10:00am 28.1 NNW 8 11 1016.3 - 0.0 - - - - - - -
03/09:30am 29.1 N 8 10 1016.2 - 0.0 - - - - - - -
03/09:00am 28.5 N 9 11 1016.1 - 0.0 - - - - - - -
03/08:30am 28.4 N 9 12 1015.9 - 0.0 - - - - - - -
03/08:00am 27.1 N 10 12 1015.7 - 0.0 - - - - - - -
03/07:30am 26.8 N 9 12 1015.6 - 0.0 - - - - - - -
03/07:00am 26.4 N 7 11 1015.4 - 0.0 - - - - - - -
03/06:30am 25.6 N 7 11 1015.2 - 0.0 - - - - - - -
03/06:00am 25.1 N 8 12 1014.6 - 0.0 - - - - - - -
03/05:30am 24.9 N 7 11 1013.6 - 0.0 - - - - - - -
03/05:00am 24.6 N 9 12 1013.5 - 0.0 - - - - - - -
03/04:30am 24.5 N 9 13 1013.3 - 0.0 - - - - - - -
03/04:00am 24.5 N 11 15 1012.9 - 0.0 - - - - - - -
03/03:30am 24.6 N 11 15 1012.6 - 0.0 - - - - - - -
03/03:00am 24.6 N 10 13 1012.6 - 0.0 - - - - - - -
03/02:30am 24.8 N 9 12 1012.6 - 0.0 - - - - - - -
03/02:00am 24.9 N 8 11 1012.8 - 0.0 - - - - - - -
03/01:30am 24.8 N 7 12 1012.9 - 0.0 - - - - - - -
03/01:00am 24.8 N 7 11 1012.9 - 0.0 - - - - - - -
03/12:30am 24.8 N 8 13 1013.1 - 0.0 - - - - - - -
03/12:00am 24.9 N 8 13 1013.2 - 0.0 - - - - - - -
 
Date/Time
EST
Temp
°C
Wind Pressure Rain since
9am
mm
Weather Cloud Vis
km
Sea
Height
m
Swell
Dir  Spd
kts
Gust
kts
hPa Trend Height
m
Period
s
Dir
02/11:30pm 24.8 N 9 15 1013.5 - 0.0 - - - - - - -
02/11:00pm 25.0 N 9 14 1013.7 - 0.0 - - - - - - -
02/10:30pm 25.0 N 9 13 1013.9 - 0.0 - - - - - - -
02/10:00pm 25.0 N 9 14 1013.9 - 0.0 - - - - - - -
02/09:30pm 25.0 N 9 15 1013.6 - 0.0 - - - - - - -
02/09:00pm 25.0 N 9 14 1013.4 - 0.0 - - - - - - -
02/08:30pm 25.1 N 8 13 1013.3 - 0.0 - - - - - - -

Other Formats:

Comma delimited format used in spreadsheet applications
http://www.bom.gov.au/fwo/IDQ60701/IDQ60701.94388.axf

JavaScript Object Notation format (JSON) in row-major order
http://www.bom.gov.au/fwo/IDQ60701/IDQ60701.94388.json